User: anonymous   Login
Location: Key Biscayne
(25.6930°N, 80.1630°W)
Time: 22:00:06
(UTC-04:00)
Language:

N. Korean satellite - Orbit

View from above orbital plane
View from above orbital plane
View from above satellite
View from above satellite

Ground track
Ground track

The orbit data is extracted from the following two-line orbital elements,

1 39026U 12072A   18172.61245038 +.00001113 +00000-0 +44202-4 0  9992
2 39026 097.2100 182.8271 0037755 309.1667 050.6220 15.26771262306271
Epoch (UTC): 21 June 2018 14:41:55
Eccentricity: 0.0037755
inclination: 97.2100°
perigee height: 459 km
apogee height: 511 km
right ascension of ascending node: 182.8271°
argument of perigee: 309.1667°
revolutions per day: 15.26771262
mean anomaly at epoch: 50.6220°
orbit number at epoch: 30627

The dashed part of the orbit path shows where the satellite is in the earth's shadow,  

DLR